Simultaneous Nadir Overpasses (SNOs) Predictions

Prediction of SNOs between AQUA and METOP-B Satellite Orbit:

Table of predicted SNOs for the next 14.0 days since TLE Epoch: 2/22/2019
Index Date (AQUA) Time (AQUA) Lat,Lon (AQUA) SZA (AQUA ) Date (METOP-B) Time (METOP-B) Lat,Lon (METOP-B) SZA (METOP-B ) Distance(km) Time Diff (sec)
1 02/24/2019 17:09:49 73.40, -82.31 82.85 02/24/2019 17:08:41 73.32, -84.31 82.88 64.34 68
2 02/24/2019 17:59:24 -73.86, 84.32 96.66 02/24/2019 17:59:12 -73.86, 84.27 96.66 1.84 12
3 02/24/2019 18:48:53 73.96,-108.27 83.44 02/24/2019 18:49:50 73.94,-108.19 83.41 3.42 57
4 02/27/2019 12:44:10 73.70, -16.53 82.13 02/27/2019 12:42:58 73.62, -17.21 82.09 23.22 72
5 02/27/2019 13:33:39 -73.85, 150.79 97.73 02/27/2019 13:33:35 -73.86, 150.69 97.71 3.69 4
6 02/27/2019 14:23:08 73.96, -41.81 82.38 02/27/2019 14:24:13 73.95, -41.77 82.36 1.62 65
7 03/02/2019 08:18:28 73.80, 49.69 81.16 03/02/2019 08:17:18 73.82, 49.67 81.20 2.44 70
8 03/02/2019 09:07:56 -73.89,-142.86 98.76 03/02/2019 09:07:59 -73.87,-142.90 98.78 2.86 3
9 03/02/2019 09:57:24 73.95, 24.64 81.30 03/02/2019 09:58:37 73.95, 24.65 81.29 0.40 73
10 03/05/2019 03:52:44 73.80, 116.13 80.08 03/05/2019 03:51:42 73.82, 116.08 80.12 3.00 62
11 03/05/2019 04:42:12 -73.88, -76.41 99.85 03/05/2019 04:42:23 -73.87, -76.49 99.87 3.00 11
12 03/05/2019 05:31:45 74.21, 90.48 80.50 03/05/2019 05:32:55 74.25, 91.80 80.47 39.94 70
13 03/07/2019 23:26:59 73.80,-177.44 78.98 03/07/2019 23:26:05 73.82,-177.51 79.02 3.19 54
14 03/08/2019 00:16:27 -73.88, -9.97 100.95 03/08/2019 00:16:45 -73.92, -9.96 100.92 3.67 18




NCC Satellite Simultaneous Nadir Overpasses (SNOs) Prediction Service
